星链-3699 (STARLINK-3699 )

导读 | 星芒AI

STARLINK-3699 是 SpaceX Starlink 项目中的一颗低轨通信卫星,属于该星座的第三组发射批次。该卫星旨在为全球用户提供高速互联网服务,特别关注网络覆盖不足的地区。它运行在约 550 公里的轨道高度,采用先进的相控阵天线和激光通信技术,以提升连接速度和稳定性。STARLINK-3699 于 2023 年由猎鹰 9 号火箭成功送入太空,是 SpaceX 扩展全球宽带网络计划的重要组成部分。

基本信息
目录编号:
51966
目录名称:
STARLINK-3699
国际标识:
2022-025L
轨道中心:
EARTH
卫星名称:
星链-3699
卫星全名:
星链-3699 (STARLINK-3699 )
卫星状态:
在轨 (已飞行1383 天)
发射日期:
2022-03-09 UTC
国别 :
美国 (US)
星等 :
--
轨道信息
数据来源 国际轨道数据 AOE轨道数据
星历时间 2025-12-21T03:33:49+0800
4小时前
查看轨道信息
2025-12-17T08:00:00+0800
4天前
查看轨道信息
半长轴 6925.387km 6925.376km
偏心率 0.0001092 0.0001396
轨道倾角 53.056° 53.055°
近地点辐角 80.370° 72.423°
升交点赤经 24.909° 42.039°
平近点角 279.741° 106.719°
近地点 546.493km 546.274km
远地点 548.007km 548.208km
周期 95.593分钟 95.593分钟
每日圈数 15.063875 15.063913
详细信息
固有亮度:
5
最大亮度:
2.5
卫星平台:
Starlink v1.5
覆盖范围:
全球
运营商:
太空探索技术公司
运营商所在国:
美国
制造商(研发单位):
太空探索技术公司
制造商所在国:
美国
使用方式:
暂无
卫星简介
星链(Starlink)计划是由太空探索技术公司(SpaceX)提出的一个巨型低轨卫星互联网星座项目,计划在2019年至2024年间在太空搭建由约1.2万颗卫星组成的“星链”网络,其中1584颗将部署在地球上空550千米处的近地轨道,并从2020年开始工作。该卫星仍在工作。
2D轨道图
3D轨道图
轨道高度分析图
轨道倾角分析图
轨道综合分析图
查看轨道综合分析图